Regional Weather Roundup
Issued by NWS

Home | Current Version | Previous Version | Text Only | Print | Product List | Glossary Off
Versions: 1 2 3 4 5 6 7 8 9 10 11 12 13 14 15 16 17 18 19 20 21 22 23 24 25 26 27 28 29 30 31 32 33 34 35 36 37 38 39 40 41 42 43 44 45 46 47 48 49 50

000
ASUS43 KIND 272009
RWRIN

WEATHER ROUNDUP FOR INDIANA
NATIONAL WEATHER SERVICE INDIANAPOLIS IN
300 PM EST FRI FEB 27 2015

NOTE: "FAIR" INDICATES FEW OR NO CLOUDS BELOW 12,000 FEET WITH NO
SIGNIFICANT WEATHER AND/OR OBSTRUCTIONS TO VISIBILITY.

* - STATION DOES NOT REPORT WEATHER SUCH AS PRECIPITATION OR FOG.

+ - STATION NOT QUALITY CONTROLLED BY THE NATIONAL WEATHER SERVICE.
    USE DATA WITH CAUTION...ESPECIALLY DEWPOINT AND RELATIVE
    HUMIDITY OBSERVATIONS.

INZ001>003-010>013-019-020-272100-
NORTHWEST INDIANA

CITY           SKY/WX    TMP DP  RH WIND       PRES   REMARKS
GARY /AIRPORT/ SUNNY     18  -8  32 W9        30.61  WCI   6
KNOX *+          N/A     16 -17  22 W9        30.60S WCI   4
LA PORTE +     SUNNY     19   0  44 SW8       30.58F WCI   9
MICHIGAN CITY+ SUNNY     18  -6  35 W7        30.60S WCI   8
MONTICELLO +   SUNNY     14   2  58 W7        30.61S WCI   4
RENSSELAER +   SUNNY     18   3  53 W6        30.61S WCI   9
VALPARAISO     MIX PCPN  15  -3  44 SW7       30.58F WCI   5

$$

LMZ046-743>745-272100-
SOUTHERN LAKE MICHIGAN

STATION/POSITION TIME  TEMP WIND        PRES
                       AIR  DIR/SP/G
                 (UTC) (F)  (DEG/KT/KT) (MB)
MICHIGAN CITY    2000   16  250/  7/  9   N/A

$$

INZ004-005-014>016-021>024-272100-
NORTH CENTRAL INDIANA

CITY           SKY/WX    TMP DP  RH WIND       PRES   REMARKS
ELKHART        PTSUNNY   18   0  45 W7        30.58S WCI   8
GOSHEN         SUNNY     16   1  51 SW7       30.57S WCI   6
LOGANSPORT +   SUNNY     18   3  53 W7        30.60S WCI   8
PERU/GRISSOM   SUNNY     15   6  68 VRB7      30.58S WCI   5
ROCHESTER +    SUNNY     21   9  58 SW6       30.59S WCI  14
SOUTH BEND     SUNNY     18   1  47 W9        30.58S WCI   7
WARSAW +       PTSUNNY   19   3  49 W7        30.57S WCI  10

$$

INZ006>009-017-018-025>027-272100-
NORTHEAST INDIANA

CITY           SKY/WX    TMP DP  RH WIND       PRES   REMARKS
ANGOLA *+      SUNNY     18   0  45 W9        30.55R WCI   6
AUBURN +       SUNNY     18  -2  41 W7        30.57S WCI   8
FORT WAYNE     MOSUNNY   18   1  47 W9        30.58S WCI   7
HUNTINGTON +   CLOUDY    17   2  52 NW6       30.57S WCI   9

$$

INZ028-029-035-036-043>045-051>053-272100-
WEST CENTRAL INDIANA

CITY           SKY/WX    TMP DP  RH WIND       PRES   REMARKS
CRAWFORDSVL +  SUNNY     14  -9  35 NW6       30.60S WCI   5
GREENCASTLE +  SUNNY     18  -4  38 N8        30.58F WCI   7
LAFAYETTE      SUNNY     15  -1  49 NW8       30.62S WCI   4
TERRE HAUTE    SUNNY     18  -1  43 N10       30.62F WCI   6

$$

INZ030>032-037>040-046>048-054>057-064-065-272100-
CENTRAL INDIANA

CITY           SKY/WX    TMP DP  RH WIND       PRES   REMARKS
ANDERSON       SUNNY     18   0  45 NW12      30.59S WCI   5
CP ATTERBURY + SUNNY     21   3  45 N13       30.59F WCI   9
FRANKFORT +    SUNNY     19   3  49 W8        30.60F WCI   9
GREENWOOD *+   MOSUNNY   16  -2  45 NW6       30.59F WCI   7
INDIANAPOLIS   MOSUNNY   17   0  47 NW9       30.58F WCI   6
-EAGLE CREEK   SUNNY     16  -2  45 NW9       30.59F WCI   4
KOKOMO *+      SUNNY     16   9  73 W10       30.59S WCI   3
MARION +       CLOUDY    17   6  61 W7        30.59S WCI   7
MT COMFORT *+  SUNNY     18  -8  32 W7        30.59S WCI   8
SHELBYVILLE    PTSUNNY   20   2  45 VRB5      30.58F WCI  13
ZIONSVILLE +   SUNNY     16  -2  45 W9        30.59F WCI   4

$$

INZ033-034-041-042-049-050-058-059-272100-
EAST CENTRAL INDIANA

CITY           SKY/WX    TMP DP  RH WIND       PRES   REMARKS
MUNCIE         SUNNY     16   2  54 W5        30.58S WCI   9

$$

INZ060-061-067>069-081>083-085>088-272100-
SOUTHWEST INDIANA

CITY           SKY/WX    TMP DP  RH WIND       PRES   REMARKS
EVANSVILLE     PTSUNNY   23   9  55 CALM      30.62F
HUNTINGBURG *+ MOSUNNY   21   7  53 N6        30.62S WCI  14
WASHINGTON +   SUNNY     18   1  47 NW3       30.62F

$$

INZ062-063-066-070>080-084-089>092-272100-
SOUTH CENTRAL AND SOUTHEAST INDIANA

CITY           SKY/WX    TMP DP  RH WIND       PRES   REMARKS
BLOOMINGTON    MOSUNNY   20   2  45 NW6       30.57F WCI  12
NORTH VERNON + SUNNY     19   0  42 NW8       30.59F WCI   9
SEYMOUR +      SUNNY     25   5  42 CALM      30.61S

$$



USA.gov is the U.S. government's official web portal to all federal, state and local government web resources and services.